Powrót do katalogu

PSLV R/B

AktywnySSO
NORAD 40720·ROCKET BODY·🇮🇳 India

Wystrzelony Jul 10, 2015 z Satish Dhawan Space Centre

Loading…

Następne Przeloty (najbliższe 24 godziny)

TLE

ŚwieżeSource: Space-Track

Epoka: Sep 14, 2026, 09:44 UTC

1 40720U 15032F   26257.40588553  .00000726  00000-0  87999-4 0  9995
2 40720  98.2036 230.3696 0005037 146.6247 213.5287 14.86812483604550

Śledź PSLV R/B w czasie rzeczywistym z AllMySat

Download on the App Store